Wind_Speed
22 18 11 13 19 12 9 6 2 2 2 2 2 4 9 12 12 12 15 21 18 12 13 12 6 3 6 5 4 8 8 8 10 11 13 15 13 14 14 15 17 18 14 15
25 19 15 20 20 16 15 11 9 7 3 3 1 3 4 11 10 14 12 13 12 15 12 11 5 4 7 2 3 2 4 7 7 10 3 3 6 9 13 15 20 22 19 16
25 20 21 24 23 20 19 16 17 12 8 5 4 1 9 7 9 12 11 12 13 11 9 8 9 13 14 13 12 11 11 11 11 10 12 13 15 5 3 6 3 8 7 9
30 28 23 26 26 22 21 22 20 18 16 11 7 5 5 3 6 8 8 10 12 9 6 3 6 9 12 11 10 12 11 9 8 10 10 11 10 10 14 11 5 11 8 11
33 31 26 28 31 30 24 28 25 21 18 14 7 11 7 5 5 5 7 13 15 6 4 3 3 4 2 2 4 5 7 7 5 5 7 8 9 9 9 10 7 7 6 4
37 35 30 29 31 32 36 28 28 26 25 23 15 18 9 7 8 2 3 10 15 11 4 6 7 7 5 3 2 4 3 4 3 2 4 5 7 7 7 8 6 5 2 0
39 37 32 31 33 31 36 31 29 31 30 29 24 25 14 13 13 10 5 7 11 13 6 6 11 9 8 5 4 2 3 4 3 0 1 2 3 4 5 6 5 4 5 7
37 35 35 31 32 30 33 34 35 33 34 32 31 32 22 13 8 14 8 9 11 17 12 9 9 12 10 9 7 4 2 1 1 1 3 4 4 3 2 4 7 8 8 8
33 34 32 33 35 33 35 38 39 38 38 38 36 32 27 21 13 13 10 12 10 12 9 8 10 14 15 13 13 15 11 8 7 6 7 6 7 9 10 9 11 10 10 11
25 28 31 34 37 41 38 37 43 46 45 44 41 37 35 26 18 15 15 12 12 12 8 8 9 12 14 15 16 15 14 12 11 9 7 5 8 10 11 11 12 12 13 13
22 24 25 32 35 39 41 40 41 47 48 48 46 42 35 26 21 15 21 15 14 13 11 10 11 13 13 15 15 17 16 15 15 12 10 8 9 10 10 11 13 14 15 15
23 24 25 29 32 38 41 41 42 44 47 50 49 47 41 30 24 18 26 23 20 16 15 14 12 11 13 13 14 15 15 16 15 13 11 8 8 10 10 11 13 16 16 15
22 25 27 26 25 35 39 41 42 42 45 47 49 50 41 36 26 24 25 26 22 16 18 17 12 9 5 6 9 13 13 13 14 13 12 13 10 10 12 13 14 15 16 16
26 25 27 28 29 25 30 35 40 43 45 43 46 45 43 39 29 25 24 30 28 20 19 19 14 11 8 9 6 6 10 16 16 18 17 17 16 16 15 17 18 17 16 18
34 31 31 28 28 30 27 30 31 36 42 45 39 40 38 36 28 29 25 31 35 29 22 19 14 13 16 12 13 16 17 19 24 28 24 21 21 18 18 21 23 20 17 18
36 38 38 34 32 31 29 27 29 29 31 39 42 40 38 34 30 24 27 28 28 30 28 22 15 15 16 17 19 18 19 23 25 29 28 20 23 20 19 20 24 24 19 19
27 35 41 42 35 34 31 30 27 25 25 27 35 37 37 33 29 21 27 26 26 23 26 20 17 17 19 22 21 22 23 17 22 28 31 25 19 20 19 20 22 21 20 17
21 25 37 45 43 40 37 29 28 26 25 28 26 32 39 36 33 30 26 28 26 23 25 24 23 21 23 23 26 27 23 22 27 23 25 24 25 23 23 18 20 20 20 18
24 24 24 40 47 45 43 36 33 32 29 28 28 26 29 36 36 28 29 27 28 27 22 25 30 29 28 31 30 31 28 30 29 27 27 27 29 23 17 18 20 21 20 19
21 24 25 27 35 47 44 44 40 38 31 30 30 29 29 29 33 40 32 31 28 26 25 21 18 21 25 29 37 37 33 34 31 31 32 29 26 22 20 20 21 24 23 24
23 24 26 27 29 34 37 41 40 44 35 34 32 31 32 32 32 39 39 34 33 31 27 26 26 27 29 30 34 40 43 36 34 38 37 26 21 22 22 22 21 22 23 25
27 31 28 28 28 33 27 29 46 49 49 31 34 33 33 31 30 32 39 39 37 35 35 35 34 33 33 36 40 42 39 42 40 41 36 31 20 22 22 22 22 24 26 30
29 29 31 32 27 27 27 28 38 51 55 27 34 38 37 34 28 29 30 39 44 44 41 39 38 39 40 42 37 39 41 45 38 35 30 27 23 25 25 27 27 28 30 32
32 32 31 33 29 28 27 27 33 37 45 56 36 35 34 30 27 28 28 29 37 45 47 46 46 40 37 39 40 44 46 47 53 36 24 22 25 29 32 31 30 30 36 35
33 35 33 33 30 31 27 25 27 29 34 42 47 40 34 32 34 40 37 36 33 33 38 45 50 39 39 37 38 42 45 39 41 31 21 27 32 38 35 29 29 33 37 31
35 35 39 35 31 35 29 25 28 31 33 32 29 32 41 45 45 41 37 39 35 34 30 33 36 37 33 30 36 41 38 36 33 30 30 38 32 32 26 27 32 31 29 31
Wind_Direction
248 238 212 209 220 214 206 227 196 281 107 173 207 128 91 73 49 17 353 333 352 10 358 12 349 266 269 290 242 249 262 277 279 281 269 256 256 266 260 250 251 260 262 270
246 243 219 225 234 230 217 229 238 242 206 194 178 60 62 88 55 27 358 341 360 14 9 19 18 141 180 255 145 135 109 106 100 82 253 234 253 250 265 267 267 262 267 265
243 242 234 233 230 230 215 232 244 242 252 273 211 50 17 99 57 30 8 12 2 12 19 30 84 110 120 113 106 100 107 100 88 74 69 70 63 95 267 252 244 230 241 271
234 234 226 236 240 223 223 229 240 251 258 254 251 252 329 122 86 49 24 351 360 4 357 53 117 117 119 118 107 103 110 101 100 83 82 82 82 62 69 60 108 121 137 125
234 236 231 234 242 236 227 228 236 250 245 244 275 273 297 207 142 46 24 347 312 4 296 272 200 177 141 120 134 129 119 103 95 71 77 82 77 69 79 95 96 95 105 92
234 234 233 233 240 235 230 228 235 242 249 247 243 265 235 230 214 207 310 344 316 323 261 246 220 238 227 247 254 168 155 129 109 75 48 63 68 74 71 69 64 62 32 18
236 239 237 238 243 240 236 239 234 243 248 257 263 264 238 254 245 232 240 278 295 297 273 252 245 246 243 253 228 188 146 148 153 293 13 85 81 57 46 45 36 29 8 353
241 239 240 238 245 248 245 239 241 241 248 261 260 267 278 284 241 237 239 254 290 292 279 237 265 257 244 263 242 224 300 293 149 241 262 285 303 326 5 357 344 346 355 346
245 241 238 234 234 237 240 235 237 241 251 257 263 269 279 290 299 253 237 259 297 302 257 259 269 246 244 260 254 244 258 270 264 262 274 273 278 293 313 323 320 323 323 325
250 242 233 233 231 235 236 236 234 238 245 252 262 265 269 279 295 245 217 249 263 276 312 290 283 249 231 243 253 253 253 263 273 281 286 300 313 309 305 300 300 306 309 313
259 248 230 232 233 238 240 239 238 241 246 251 259 262 267 277 289 249 223 232 252 265 290 307 288 267 252 243 253 261 261 266 272 273 266 300 317 318 312 295 294 298 302 300
268 255 243 235 233 235 239 240 239 241 245 250 257 262 266 269 273 277 228 233 249 271 286 295 307 262 256 254 261 267 261 257 258 254 260 277 294 304 314 312 306 302 300 299
262 260 256 247 243 240 238 240 244 245 245 248 254 262 267 269 264 269 234 239 244 258 275 285 305 267 227 253 272 269 259 260 260 256 253 263 276 292 296 303 305 303 303 305
269 266 257 256 249 246 242 245 243 245 247 250 252 260 261 265 256 252 241 237 241 242 264 276 297 252 239 291 275 258 274 270 267 259 252 259 268 279 288 290 294 294 294 298
263 264 265 260 255 248 243 245 246 245 246 248 249 252 257 258 259 239 247 247 244 243 248 267 276 267 264 274 263 265 290 303 292 272 248 257 262 266 269 271 275 284 283 293
260 255 255 259 261 257 250 252 247 248 251 251 249 248 251 255 256 242 243 256 258 248 240 258 253 253 265 271 276 278 302 316 311 295 338 263 271 265 265 270 273 283 280 294
267 255 249 250 254 261 256 248 252 249 249 247 248 247 247 251 251 247 243 249 259 236 240 241 243 248 268 284 283 283 293 317 301 288 317 322 277 264 271 274 277 275 286 298
276 271 253 249 246 252 257 252 252 255 252 243 241 244 247 245 247 254 248 242 249 246 248 245 244 248 254 264 268 275 301 308 285 299 303 300 274 259 261 273 275 280 289 301
275 272 270 255 251 248 258 258 257 253 250 245 241 241 245 249 242 246 255 245 240 252 255 257 249 253 256 254 273 279 284 282 277 280 293 308 318 262 267 278 279 283 297 307
277 271 266 268 259 252 253 257 260 259 250 244 244 244 246 247 245 240 243 251 248 248 249 254 250 250 253 255 260 270 274 273 276 280 281 293 310 254 264 277 286 289 298 306
276 275 273 271 275 271 257 249 237 245 238 242 244 248 254 258 247 240 240 239 245 250 249 249 256 258 263 260 266 267 271 267 268 272 281 285 292 248 250 265 277 293 297 310
270 275 275 276 279 283 273 252 233 238 241 223 244 252 256 260 255 239 236 235 233 236 242 246 255 267 265 269 275 286 276 264 254 254 275 291 290 241 250 266 278 280 296 306
270 270 272 276 282 281 275 264 234 228 245 212 230 247 254 257 258 262 238 235 237 237 238 243 251 259 267 274 278 273 268 277 266 260 264 269 266 244 254 265 271 282 294 299
271 270 271 273 279 280 276 263 243 232 235 237 215 226 238 247 255 265 265 260 246 243 244 247 251 256 263 265 265 279 284 278 275 273 263 265 257 250 253 257 274 290 292 295
266 264 267 270 272 272 272 256 243 239 239 237 243 223 227 240 259 270 271 269 264 262 253 252 250 246 250 258 267 277 278 284 305 266 269 279 271 260 251 263 278 283 289 296
271 263 259 262 257 263 264 266 252 244 244 246 241 248 248 252 260 258 259 262 259 259 255 254 246 242 242 248 256 268 282 291 298 298 295 308 281 271 253 271 277 282 289 297
Height
5911 5916 5919 5920 5920 5923 5924 5923 5921 5921 5922 5923 5922 5922 5921 5918 5917 5915 5912 5906 5905 5904 5903 5900 5899 5899 5900 5900 5899 5900 5900 5901 5901 5900 5899 5898 5899 5898 5898 5898 5898 5896 5899 5898
5907 5911 5917 5916 5917 5920 5923 5922 5921 5920 5922 5924 5923 5922 5921 5919 5918 5916 5913 5910 5906 5906 5905 5901 5899 5898 5900 5900 5900 5900 5900 5900 5899 5898 5896 5896 5897 5895 5895 5895 5894 5894 5894 5895
5902 5909 5910 5911 5913 5917 5920 5920 5919 5919 5920 5921 5923 5923 5922 5921 5918 5917 5914 5911 5909 5908 5907 5906 5903 5901 5902 5902 5902 5901 5901 5901 5900 5900 5899 5897 5895 5894 5893 5891 5891 5890 5892 5893
5896 5899 5904 5905 5909 5913 5915 5915 5916 5917 5918 5919 5921 5922 5923 5922 5919 5917 5915 5912 5910 5909 5909 5908 5908 5907 5905 5904 5903 5903 5902 5902 5901 5901 5901 5900 5898 5895 5894 5890 5891 5891 5892 5893
5891 5892 5896 5899 5903 5907 5911 5910 5913 5915 5916 5918 5919 5920 5922 5922 5920 5917 5916 5914 5910 5909 5909 5909 5909 5909 5907 5906 5905 5904 5903 5902 5903 5902 5902 5901 5900 5898 5896 5894 5894 5894 5895 5895
5884 5887 5891 5894 5896 5900 5903 5907 5909 5910 5911 5913 5916 5916 5919 5920 5919 5917 5915 5914 5910 5908 5908 5908 5908 5909 5908 5908 5906 5905 5904 5902 5902 5903 5902 5902 5901 5899 5899 5897 5896 5895 5895 5895
5880 5884 5889 5891 5891 5894 5897 5903 5905 5905 5905 5906 5909 5910 5916 5917 5916 5915 5914 5912 5910 5907 5906 5907 5907 5908 5908 5908 5906 5905 5904 5902 5902 5901 5901 5901 5900 5899 5897 5896 5896 5895 5895 5895
5874 5880 5882 5888 5888 5891 5892 5896 5898 5898 5899 5902 5902 5902 5908 5911 5911 5912 5912 5910 5908 5906 5903 5904 5904 5905 5906 5907 5906 5905 5904 5902 5901 5900 5900 5900 5899 5898 5897 5896 5896 5895 5895 5894
5867 5871 5875 5878 5880 5883 5883 5886 5891 5893 5894 5894 5895 5898 5902 5905 5908 5908 5909 5908 5908 5905 5902 5901 5902 5902 5903 5904 5904 5904 5903 5902 5901 5900 5900 5899 5898 5896 5894 5894 5893 5893 5890 5889
5861 5864 5867 5869 5873 5874 5876 5881 5884 5885 5887 5887 5889 5891 5896 5901 5903 5904 5904 5904 5905 5904 5903 5900 5899 5899 5901 5901 5901 5901 5901 5901 5901 5899 5898 5897 5896 5894 5892 5892 5892 5890 5889 5887
5854 5858 5862 5863 5867 5867 5871 5874 5877 5880 5881 5882 5883 5885 5890 5896 5898 5900 5901 5901 5900 5901 5901 5900 5898 5898 5898 5898 5899 5899 5899 5899 5898 5897 5896 5894 5893 5892 5891 5890 5889 5887 5885 5884
5847 5849 5853 5858 5858 5860 5862 5865 5869 5870 5875 5876 5877 5879 5885 5892 5894 5896 5897 5897 5897 5897 5897 5897 5896 5895 5896 5896 5896 5897 5897 5896 5894 5893 5892 5891 5889 5888 5887 5886 5884 5883 5881 5879
5841 5842 5845 5850 5853 5853 5855 5858 5860 5864 5865 5866 5870 5872 5880 5886 5889 5890 5892 5891 5892 5893 5892 5893 5893 5893 5892 5892 5893 5893 5893 5892 5891 5890 5888 5887 5885 5883 5882 5881 5881 5880 5878 5876
5836 5836 5837 5841 5844 5848 5850 5851 5853 5855 5855 5861 5862 5867 5872 5877 5882 5884 5885 5886 5886 5887 5887 5888 5889 5890 5889 5889 5889 5889 5888 5886 5885 5884 5882 5881 5880 5877 5876 5876 5876 5874 5873 5872
5830 5830 5831 5832 5834 5839 5843 5845 5845 5846 5849 5849 5856 5858 5864 5868 5873 5876 5879 5880 5880 5882 5883 5884 5884 5885 5885 5884 5884 5883 5883 5882 5881 5878 5876 5876 5874 5872 5871 5870 5869 5868 5866 5865
5819 5822 5822 5826 5827 5830 5835 5837 5839 5840 5841 5843 5846 5851 5855 5861 5865 5869 5872 5874 5874 5876 5878 5879 5879 5880 5880 5879 5879 5879 5879 5878 5877 5878 5876 5874 5873 5870 5867 5866 5865 5863 5860 5859
5810 5810 5813 5816 5821 5822 5826 5829 5831 5833 5835 5838 5840 5845 5848 5854 5858 5862 5865 5868 5868 5869 5871 5873 5873 5874 5874 5874 5874 5874 5874 5873 5873 5871 5871 5865 5867 5864 5861 5859 5860 5858 5857 5852
5805 5803 5803 5805 5811 5813 5816 5821 5823 5825 5828 5831 5834 5837 5841 5846 5852 5855 5857 5861 5862 5864 5866 5867 5868 5868 5868 5868 5868 5867 5867 5867 5867 5865 5863 5862 5857 5857 5856 5855 5854 5853 5851 5848
5798 5797 5797 5796 5799 5806 5808 5812 5815 5818 5821 5824 5827 5830 5833 5838 5845 5847 5849 5852 5855 5857 5858 5860 5861 5862 5862 5862 5862 5860 5861 5861 5859 5858 5856 5855 5854 5851 5849 5849 5849 5848 5846 5842
5793 5791 5791 5791 5790 5794 5801 5802 5806 5808 5812 5816 5819 5822 5824 5828 5833 5838 5841 5844 5847 5849 5851 5852 5853 5854 5855 5855 5852 5851 5854 5853 5852 5850 5848 5846 5845 5845 5844 5842 5841 5841 5838 5836
5786 5785 5785 5784 5784 5785 5787 5791 5795 5798 5803 5806 5810 5813 5815 5817 5820 5825 5830 5835 5838 5840 5842 5843 5844 5845 5845 5846 5845 5844 5843 5845 5843 5841 5840 5836 5834 5834 5836 5835 5834 5833 5832 5828
5780 5777 5778 5777 5776 5775 5778 5779 5783 5786 5789 5794 5800 5804 5806 5808 5811 5812 5818 5822 5827 5829 5831 5833 5835 5836 5838 5838 5836 5836 5836 5831 5825 5828 5829 5830 5826 5827 5828 5828 5827 5825 5823 5821
5771 5771 5769 5768 5768 5766 5766 5765 5767 5773 5778 5780 5788 5794 5797 5799 5802 5804 5807 5811 5815 5818 5821 5824 5827 5829 5828 5827 5828 5828 5825 5822 5813 5810 5818 5819 5818 5818 5820 5819 5818 5816 5815 5812
5762 5760 5760 5759 5761 5758 5756 5758 5760 5763 5767 5775 5778 5782 5787 5790 5793 5795 5797 5800 5803 5808 5811 5814 5817 5819 5818 5818 5820 5819 5816 5816 5815 5810 5807 5808 5809 5810 5811 5810 5810 5808 5807 5803
5751 5749 5750 5749 5751 5748 5747 5749 5751 5754 5758 5763 5769 5771 5776 5780 5783 5786 5789 5791 5793 5795 5799 5801 5803 5806 5807 5809 5812 5810 5807 5808 5801 5799 5800 5802 5802 5801 5801 5800 5800 5799 5796 5793
5738 5738 5735 5737 5739 5737 5740 5740 5742 5745 5748 5751 5756 5761 5767 5771 5773 5776 5778 5780 5785 5787 5789 5791 5792 5793 5795 5798 5800 5800 5800 5800 5796 5795 5793 5792 5793 5792 5792 5791 5789 5788 5786 5784